Погода Верхний Уфалей

Погода Верхний Уфалей : погода сейчас, прогноз погоды и архив. Всё, что Вы хотите узнать о погоде Верхний Уфалей!

Поиск расширенной информации на нашем сайте:

Другие новости

Новости СМИ2

Главная страница сайта

Новости сайта

03.07.2017

Напоминаем, что на нашем специализированном сайте Метеоцентр.Азия вы можете получить высокодетализированные автоматические прогнозы погоды по пунктам России, СНГ и мира в авиационном формате (включающие направление и скорость ветра, видимость, явления погоды, количество и форму облачности, нижнюю и верхнюю границу облачности).


Погода Верхний Уфалей - сегодня

Время (UTC), дата Ветер
(°,м/с) 
Видим.   Явления Облачность Т
(°С)
Тd
(°С)
f(%) Тe
(°С)
Pmin
(гПа)
dP
(гПа)
Po
(мм)
O2
(г/м3)
Тmin Tmax R s Состояние
почвы
18 14.08.18 040 (СВ) 20000 м    9/6 600 м средняя 
[Sc|Ac trans]
+15.9 +13.4 85 +24  1008.5  -0.1  722  272           
21 14.08.18 тихо ()   4000 м  слаб. ливневой дождь  10/8 600 м кучево-дожд., средняя 
[Cb calv|Ac As]
+14.7 +14 96 +23  1008.1  -0.6  721  273           
00 15.08.18 350 (С) 4000 м  {ливн. осадки}  9/8 600 м средняя 
[Sc|Ac trans]
+14.2 +12.9 92 +21  1008  -0.1  721  274           
09 15.08.18 310 (СЗ) 20000 м  {ливн. осадки}  10/6 600 м средняя 
[Sc|Ac As]
+16.5 +12.9 79 +23  1009.6  0.2  723  272           
12 15.08.18 300 (СЗ) 2000 м  ливневой дождь  9/9 600 м кучево-дожд., средняя 
[Cb calv|Ac trans]
+15.4 +13.3 87 +24  1010.9  1.1  724  273           
18 15.08.18 050 (СВ) 20000 м  {ливн. осадки}  6/0 средняя 
[Ac trans]
+11.4 +10.2 92 +15  1014.2  1.6  725  279           
21 15.08.18 040 (СВ) 20000 м    ясно 
+10.3 +8.9 91 +11  1014.8  0.3  726  280           
00 16.08.18 тихо ()   20000 м    ясно 
+6.9 +6 94 +7  1016.4  0.9  726  284           
06 16.08.18 280 (З) 20000 м    4/3 600 м верхняя 
[Cu hum|Ci fib]
+18.8 +10.9 60 +22  1014.8  -0.5  727  272           
09 16.08.18 260 (З) 20000 м    8/4 600 м верхняя 
[Cu med, cong|Ci fib]
+20.8 +10 50 +23  1013.4  -1  726  270           
12 16.08.18 230 (ЮЗ) 20000 м    10/3 600 м средняя 
[Cu med, cong|Ac As]
+19.8 +10.2 54 +23  1013  -0.6  725  271           
18 16.08.18 220 (ЮЗ) 4000 м  в посл. час ливневой дождь  8/8 600 м средняя 
[Sc|Ac trans]
+15.3 +13.1 87 +23  1011.3  -1  724  274           
21 16.08.18 250 (З) 4000 м    4/3 600 м средняя 
[Sc|Ac trans]
+14.6 +13.2 91 +22  1010.4  -1  723  274           
00 17.08.18 240 (ЮЗ) 4000 м  в посл. час ливневой дождь  9/8 600 м средняя 
[Sc|Ac trans]
+14.9 +14 94 +24  1009.2  -1.1  722  273           
09 17.08.18 290 (З) 20000 м  в посл. час ливневой дождь  9/8 600 м средняя 
[Sc|Ac trans]
+15.6 +10.9 74 +19  1012.2  1.2  724  274           
18 17.08.18 тихо ()   20000 м    ясно 
+8.1 +6.6 90 +8  1016.4  0.4  726  283           
21 17.08.18 тихо ()   20000 м    ясно 
+5.7 +4.5 92 +6  1016.8  726  286           
00 18.08.18 020 (С) 20000 м    ясно 
+4.7 +4 95 +6  1017.4  0.4  727  287           
06 18.08.18 010 (С) 20000 м  {туман}  3/3 600 м 
[Cu hum]
+13.9 +7.6 66 +14  1017.1  728  278           
09 18.08.18 010 (С) 20000 м    9/8 600 м средняя 
[Cu med, cong|Ac trans]
+15.6 +6.9 56 +16  1016.7  -0.2  728  276           
12 18.08.18 360 (С) 20000 м    9/8 600 м средняя 
[Cu med, cong|Ac trans]
+15.2 +7.6 60 +15  1017.3  0.6  728  277           
18 18.08.18 360 (С) 20000 м    9/8 600 м средняя 
[Sc|Ac trans]
+10.4 +7.9 84 +11  1019.6  0.5  729  282           
21 18.08.18 360 (С) 20000 м    6/3 600 м средняя 
[Sc|Ac trans]
+8.6 +7 90 +10  1019.9  729  284           
00 19.08.18 360 (С) 20000 м    4/3 600 м средняя 
[Sc|Ac trans]
+7 +6.1 94 +7  1020.3  0.1  729  285           
06 19.08.18 360 (С) 20000 м  {туман}  9/4 600 м средняя 
[Sc|Ac trans]
+13.6 +7.9 68 +14  1019.3  -0.5  729  279           
Время (UTC), дата Ветер
(°,м/с) 
Видим.   Явления Облачность Т
(°С)
Тd
(°С)
f(%) Тe
(°С)
Pmin
(гПа)
dP
(гПа)
Po
(мм)
O2
(г/м3)
Тmin Tmax R s Состояние
почвы

Для получения пояснительной информации подведите курсор к названию столбца.

ПОГОДА Верхний Уфалей - архив

Всё, что Вы хотите узнать о погоде Верхний Уфалей - удобно и подробно!

Выберите нужную дату (начиная с 1 января 2015* года) и нажмите кнопку "Найти".
Будут отображены архивные сводки погоды по пункту Верхний Уфалей, начиная с указанной даты.


Отображать данные в формате CSV (для использования в таблицах Excel)


Внимание! Наш архив погоды предназначен исключительно для личного некоммерческого использования в познавательных целях. Если Вам необходимы официальные справки о состоянии погоды (для производственных, юридических, коммерческих и т.п. целей), обращайтесь в органы Росгидромета.

*Примечание: данная дата относится к архиву по метеостанциям СССР (Россия, СНГ, Балтия).
Архив по метеостанциям Зарубежной Европы и Азии (кроме Китая) хранится 10 дней, по другим регионам земного шара (Китай, Африка, Америка, Австралия, Океания) - 1 день.

Верхний Уфалей - район местоположения метеостанции


Название, широта, долгота, высота метеостанции:
Верхний Уфалей 56.1°ш. 60.3°д. 399 м над ур. моря [Российская Федерация]

Дополнительная информация

В oтличие oт бoльшинства пoгoдных сайтoв мы публикуем пoдрoбную метеoинфoрмацию в детальнoм прoфессиoнальнoм фoрмате.

Характеристики температуры и влажнoсти вoздуха измеряются на высoте 2 м в тени вдали oт зданий и деревьев.
Скoрoсть ветра измеряется на высoте 10 м (на урoвне рoста челoвека скoрoсть ветра ниже в 1.5-2 раза). Если метеoстанция нахoдится в гoрoде или в лесу, тo скoрoсть ветра занижена на 2-4 м/с пo сравнению с oткрытым местoм. Скoрoсть ветра над акватoриями крупных рек и oзёр, а также на вершинах хoлмoв на 2-5 м/с выше, чем в oбычных услoвиях.
Атмoсфернoе давление в разных тoчках местнoсти мoжет значительнo oтличаться oт давления на метеoстанции, в зависимoсти oт услoвий рельефа (при пoдъёме на 10 м давление пoнижается примернo на 1 мм рт.ст.).